Location: Campestrin
(46.4667°N, 11.7167°E)
Time: 16:18:55
(UTC+00:00)

Cosmos 1745 Rocket - Pass Details

Date: 18 April 2021
Orbit: 953 x 998 km, 83.0° (Epoch: 06 May)

Event Time Altitude Azimuth Distance (km) Brightness Sun altitude
Rises 21:47:48 0° 352° (N) 3,719 8.1 -29.3°
Reaches altitude 10° 21:50:22 10° 354° (N) 2,761 7.2 -29.5°
Enters shadow 21:56:33 77° 62° (ENE) 1,012 3.9 -29.9°
